Regional Weather Roundup
Issued by NWS Midland/Odessa, TX

Current Version | Previous Version | Text Only | Print | Product List | Glossary On
Versions: 1 2 3 4 5 6 7 8 9 10 11 12 13 14 15 16 17 18 19 20 21 22 23 24 25 26 27 28 29 30 31 32 33 34 35 36 37 38 39 40 41 42 43 44 45 46 47 48 49 50
000
ASUS44 KMAF 170810
RWRMAF
MIDLAND AREA WEATHER ROUNDUP
NATIONAL WEATHER SERVICE MIDLAND TX
200 AM CST SUN FEB 17 2019

...IN SOUTHWEST TEXAS AND SOUTHEAST NEW MEXICO...

CITY           SKY/WX    TMP DP  RH WIND       PRES   REMARKS
ALPINE         FAIR      49  10  20 SE6       29.89R
ANDREWS        FAIR      44  18  34 NW7       29.82R
ARTESIA        FAIR      37  19  48 NW8       29.84  WCI  31
BIG SPRING     FAIR      47  20  34 NW8       29.82R
CARLSBAD       FAIR      43  19  38 NW3       29.82R
DRYDEN           N/A     61  22  22 N15G24    29.73R
FORT STOCKTON  FAIR      51  22  31 NW13      29.82R
GUAD PASS      NOT AVBL
HOBBS          FAIR      41  16  36 NW10      29.82R WCI  35
LAMESA         NOT AVBL
MARFA          FAIR      43  20  39 NW10      29.87R WCI  37
MIDLAND AIRPK    N/A     46  21  36 NW3       29.82R
MIDLAND INTL   FAIR      46  20  35 NW5       29.81R
ODESSA         FAIR      47  17  30 N7        29.82R
PECOS          FAIR      47  20  33 W8        29.83R
PRESIDIO       FAIR      58  10  14 W9G18     29.77R
SEMINOLE       FAIR      38  17  41 NW8       29.86R WCI  33
SNYDER         FAIR      53  15  22 NW14G21   29.78R
WINK           FAIR      41  17  38 N9        29.81R WCI  35
$$
...OTHER STATIONS IN TEXAS...

CITY           SKY/WX    TMP DP  RH WIND       PRES   REMARKS
ABILENE        FAIR      48  32  53 NW7       29.74R
AMARILLO       FAIR      23  19  85 W8        29.77F WCI  14
AUSTIN         CLOUDY    53  48  83 NW5       29.69R
BROWNSVILLE    CLOUDY    73  72  96 SE10      29.61F
CORPUS CHRISTI FOG       65  63  93 NE8       29.63S VSB 1/8
DALLAS FTW     DRZL/FOG  42  42 100 N9        29.71R VSB 1/2 WCI  37
DEL RIO        CLOUDY    58  58 100 NW13      29.71R FOG
EL PASO        FAIR      46  21  37 N7        29.87R
HOUSTON INT    CLOUDY    67  65  93 S3        29.64S
LUBBOCK        FAIR      34  20  56 N15       29.81R WCI  24
SAN ANGELO     FAIR      53  29  39 N13       29.78R
SAN ANTONIO    CLOUDY    54  53  97 N3        29.68R FOG
WACO           CLOUDY    45  44  97 SE3       29.70F FOG
WICHITA FALLS  CLOUDY    27  24  89 NW10      29.77S WCI  17
$$
...OTHER LOCATIONS IN NEW MEXICO...

CITY           SKY/WX    TMP DP  RH WIND       PRES   REMARKS
ALAMOGORDO     FAIR      39  19  45 MISG      29.86
ALBUQUERQUE    FAIR      30  17  58 W5        29.85S WCI  25
CANNON AFB     FAIR      33   9  36 NW13      29.81R WCI  24
CLOVIS         FAIR      28  16  60 N10       29.83R WCI  19
HOLLOMAN AFB   MOCLDY    37  20  51 N6        29.88R WCI  32
ROSWELL        FAIR      44  20  38 NW8       29.81R WCI  39
RUIDOSO        NOT AVBL
SANTA FE       FAIR      22  12  65 SW6       29.81S WCI  14
TRUTH OR CONSE FAIR      40  15  36 VRB6      29.86R WCI  36
TUCUMCARI      FAIR      27  12  53 SE5       29.79R WCI  22
$$




USA.gov is the U.S. government's official web portal to all federal, state and local government web resources and services.